Matala Airport

Jump to: basic info | weather | runways | comments

Related pages: nearby airports | nearby navaids | notams | map

Basic information (top)

Codes: FN18
Location: lon -14.727500, lat 15.014000, elev 4,120 ft / 1,256 m msl
Status: small_airport

Weather (top)

Current conditions for Lubango Airport 84nm (156km) W (rec'd 2014/07/29 16:00Z):

FNUB 291600Z 13009KT CAVOK 24/02 Q1024

Airport forecast for Lubango Airport 84nm (156km) W (rec'd 2014/07/29 12:00Z):

TAF FNUB 291100Z 2912/2924 12010KT 9999 SCT020 
      TEMPO 2914/2920 CAVOK 
      BECMG 2920/2922 VRB03KT 9000 NSC

Runways (top)

10/28: 8,015 x 98 ft (2,443 x 30 m) — paved — not lighted

Latest comments (top)

No comments yet for Matala Airport

More... (top)

See also NOTAMs and nearby airports and navaids, or visit the Matala Airport page at the main OurAirports website..